Presure
170 192 202 180 189 193 190 158 178 208 202 202 175 151 196 187 196 109 159 203 166 147 218 251 288 273 259 90 262 257 227 160 213 275 120 131 280 155 134 140 131 149 153 135 134
199 191 187 200 202 205 204 215 206 168 200 196 196 173 194 171 198 99 88 202 224 220 228 247 290 253 329 231 175 206 188 181 130 171 113 204 147 145 133 126 167 170 141 143 127
209 204 204 202 196 198 194 207 185 199 200 193 197 190 196 191 188 180 217 177 223 220 226 256 279 239 343 281 253 244 123 205 275 110 241 267 262 251 140 149 150 165 146 149 118
157 202 193 187 206 149 213 193 196 193 182 197 196 192 168 190 184 187 205 209 222 219 237 288 255 347 354 275 239 251 274 262 263 250 250 263 139 142 204 131 208 147 152 142 132
194 194 194 202 193 204 203 194 201 192 192 193 193 182 195 185 177 190 209 208 219 202 236 288 235 325 355 264 249 272 274 252 254 225 237 169 128 217 140 219 166 149 154 148 125
190 192 185 197 203 207 195 183 183 187 192 196 191 183 192 178 123 184 199 212 223 209 242 284 304 326 304 253 252 272 276 245 236 252 177 232 239 269 173 188 149 157 125 135 147
186 201 197 189 200 192 168 183 195 199 190 196 179 183 191 169 191 174 210 196 230 213 245 275 369 388 289 252 250 253 265 239 239 237 242 139 116 255 264 134 146 126 133 117 126
192 190 201 198 194 193 191 191 196 181 193 184 181 192 169 184 185 188 193 218 215 215 244 264 357 357 271 246 247 248 247 244 250 163 251 256 242 139 140 219 147 126 254 140 176
180 205 193 191 190 185 186 194 204 196 181 188 182 192 180 179 181 186 204 215 198 211 240 258 311 264 258 247 251 242 240 240 235 240 236 248 225 125 139 227 193 124 142 116 138
193 181 184 186 185 183 181 193 195 188 196 181 185 182 186 164 184 211 192 205 212 210 262 239 300 247 252 242 251 244 237 165 239 134 219 179 218 125 219 143 215 142 136 141 120
182 185 188 181 181 187 187 203 190 174 206 184 190 178 162 186 165 180 200 188 206 203 257 227 288 242 242 249 248 236 229 235 163 240 236 233 240 237 188 176 205 122 141 132 122
173 179 183 185 182 188 193 183 185 181 187 190 183 178 168 182 182 204 196 181 196 209 262 225 265 243 240 251 242 231 226 193 240 229 227 165 229 118 209 215 163 154 134 131 125
185 182 179 189 176 188 198 184 179 193 186 187 180 192 193 189 190 194 189 214 239 208 261 224 266 245 236 255 238 236 218 223 210 228 213 116 117 223 228 177 127 121 132 121 174
192 193 181 190 190 188 192 188 190 186 170 185 177 187 179 184 201 204 211 201 209 201 249 226 236 261 244 244 241 243 222 217 221 214 222 152 217 121 127 134 116 139 208 224 137
184 194 187 191 191 187 184 185 186 173 182 189 182 188 192 198 207 174 191 206 191 191 234 297 238 232 258 238 254 239 218 212 214 215 225 220 218 217 132 222 228 223 225 222 226
200 197 195 184 190 193 187 179 174 177 188 183 185 189 208 187 182 189 199 202 202 190 230 264 222 237 252 244 237 252 213 215 217 222 229 219 218 221 218 189 221 220 160 158 133
199 187 179 195 200 190 192 192 181 150 180 196 187 191 203 161 171 198 186 194 220 238 240 263 214 236 244 236 243 237 228 216 223 226 220 231 223 224 230 219 215 213 211 215 220
194 203 184 155 210 183 193 180 189 194 194 191 171 188 202 162 201 204 207 207 213 237 230 261 217 217 230 236 231 228 235 215 216 219 241 231 226 215 217 217 220 219 220 213 213
220 176 142 191 181 201 202 171 193 192 193 188 201 162 192 167 175 198 207 204 199 207 185 251 224 232 238 236 233 243 233 216 215 241 219 215 213 216 217 209 210 213 205 216 220
196 219 207 201 191 201 195 172 196 160 183 193 177 184 164 179 190 189 193 188 215 190 210 248 238 215 213 239 239 220 217 225 226 226 217 217 209 211 210 215 224 221 213 205 208
210 204 204 196 201 207 207 195 186 194 190 194 196 178 174 150 165 199 197 215 213 195 214 213 253 219 213 217 230 227 219 220 230 225 221 215 211 217 217 214 207 209 207 203 202
233 181 174 221 192 168 195 170 178 175 196 205 200 162 178 186 204 187 200 209 203 199 224 223 253 225 210 222 241 225 219 221 209 212 223 215 212 213 205 205 207 204 202 206 217
243 210 204 220 211 203 208 192 200 216 181 168 170 199 182 195 186 186 202 198 213 222 203 210 237 243 264 216 233 216 213 216 217 218 211 208 215 200 203 204 204 206 213 217 214
227 249 149 179 221 213 189 202 187 183 156 182 183 203 174 178 189 193 196 209 215 221 208 206 230 242 261 214 215 202 205 211 215 209 209 211 209 201 203 208 209 209 207 209 214
225 240 238 244 238 218 174 200 160 187 152 206 183 192 188 194 196 203 193 198 209 186 206 216 203 242 267 233 212 205 209 215 216 206 202 200 204 213 217 215 204 205 208 212 214
246 246 236 219 161 217 227 190 203 192 209 195 208 185 193 199 200 185 205 208 216 217 198 214 215 234 255 242 209 251 227 210 218 228 205 197 207 220 218 209 204 204 203 201 252
126 169 220 222 158 209 214 214 207 162 195 200 202 199 195 198 198 213 200 205 217 204 207 209 224 216 246 251 232 230 242 236 230 234 224 212 216 218 209 207 205 206 258 229 229
Wind_Speed
88 86 74 74 80 79 68 63 83 64 64 59 52 47 62 63 67 30 48 71 55 45 61 78 65 49 26 28 23 26 26 30 31 28 40 53 25 71 51 55 49 63 69 43 43
76 84 87 75 74 69 66 60 62 54 63 59 59 52 61 55 66 34 33 69 73 67 69 75 61 49 21 25 36 29 31 37 44 35 44 35 65 58 45 37 39 79 51 48 28
69 72 73 73 67 68 68 60 72 61 62 60 60 59 61 63 63 48 74 63 70 64 63 80 56 47 23 22 20 21 39 31 30 47 27 31 28 35 54 63 61 75 57 58 45
78 73 72 70 65 56 59 62 59 60 66 61 59 57 56 59 45 61 67 65 68 62 72 71 50 23 22 18 19 23 31 25 22 24 23 29 47 49 39 50 44 53 62 40 39
71 70 71 67 65 63 57 60 56 60 62 59 56 55 60 54 44 65 69 66 68 49 68 67 45 19 18 15 18 21 32 22 19 29 25 52 35 41 41 49 65 53 65 58 48
71 71 71 66 66 59 58 62 60 60 61 59 56 55 57 42 42 64 61 69 72 54 69 62 34 18 16 17 13 9 23 21 19 21 31 29 27 26 44 51 49 69 47 46 53
70 71 70 66 63 60 70 63 60 60 62 58 53 52 51 40 61 45 67 57 71 56 71 57 15 8 17 13 11 7 24 26 22 26 27 38 33 28 32 34 59 46 52 42 41
71 70 73 69 65 60 61 62 61 60 60 57 52 55 33 55 52 50 59 69 57 57 72 54 12 10 11 8 10 11 14 15 26 34 20 22 28 31 32 41 48 49 44 44 55
73 69 68 66 65 62 61 61 60 60 59 53 50 55 40 50 51 51 63 61 47 53 69 49 20 14 9 7 11 15 18 19 21 21 23 22 32 43 38 38 48 48 40 42 56
71 72 68 66 65 65 64 64 59 58 59 53 50 49 41 37 47 62 47 57 56 50 62 44 15 24 18 8 14 14 16 19 20 36 25 33 31 42 39 40 37 39 45 41 45
77 72 68 69 68 68 66 63 59 61 58 50 54 39 34 47 41 38 55 43 50 43 59 40 15 22 21 9 13 12 14 17 25 19 17 17 18 36 38 42 44 46 41 46 49
78 76 75 71 69 71 70 58 63 61 56 53 52 35 28 39 37 59 47 37 43 46 54 37 22 16 17 12 10 16 15 16 15 15 17 25 20 31 28 45 40 47 40 37 47
85 82 80 77 70 74 66 65 61 59 57 52 48 60 61 49 59 50 41 59 60 42 53 35 24 12 11 13 15 19 14 12 14 15 19 24 28 26 25 33 40 39 49 45 46
88 87 81 82 78 74 69 69 65 60 42 54 49 52 35 45 64 54 58 47 45 40 50 33 30 15 10 11 14 17 15 12 14 18 18 37 22 43 43 45 36 37 41 45 52
85 86 83 81 79 75 72 69 67 45 58 63 58 58 64 66 59 30 45 55 35 32 47 30 25 24 12 5 17 18 15 14 17 21 18 22 22 22 44 28 30 33 36 38 40
93 84 84 79 80 76 75 65 56 55 69 63 53 59 62 33 43 45 49 47 42 33 44 33 26 20 9 7 10 17 15 17 18 22 19 22 23 21 24 30 27 27 44 45 53
95 81 73 86 83 76 75 73 65 47 67 73 55 47 58 36 27 50 38 42 52 50 43 32 25 21 13 5 11 14 21 18 20 23 20 22 19 19 22 26 27 29 33 34 34
96 93 78 46 76 61 73 54 68 71 71 64 50 48 58 39 54 53 54 51 41 45 36 34 26 22 18 14 12 13 19 21 22 21 20 18 19 20 26 28 28 29 31 36 35
96 59 58 91 56 78 75 34 65 70 62 58 64 39 50 39 30 47 51 45 33 34 26 33 25 21 21 21 17 14 17 20 22 21 19 19 24 24 25 26 28 28 33 35 35
94 97 98 93 77 86 72 52 67 50 56 56 51 34 39 45 39 34 36 28 51 26 33 37 25 25 22 22 19 17 18 18 19 22 18 19 27 27 26 27 25 24 26 32 34
109 97 95 92 83 87 79 73 72 71 55 60 61 31 34 37 34 53 46 53 53 28 40 31 33 26 24 20 22 19 19 17 21 21 19 21 28 25 23 24 26 26 30 32 36
109 76 82 102 56 39 69 53 62 53 62 66 65 48 30 38 56 43 53 53 40 31 46 37 37 26 28 23 22 21 21 20 24 24 23 20 24 22 23 25 27 29 33 33 32
104 95 94 93 91 82 79 72 77 74 40 36 39 61 45 56 52 50 53 40 57 56 35 34 37 33 27 26 22 27 27 27 25 24 24 22 24 23 27 26 28 31 32 31 33
101 108 42 60 90 88 69 81 68 56 40 41 47 59 42 49 53 54 47 59 60 56 43 31 35 37 32 28 23 33 32 31 28 24 22 25 25 25 27 26 30 31 34 38 32
95 106 92 96 89 89 69 82 63 51 49 71 49 63 64 65 59 66 43 48 58 30 42 44 34 36 33 32 29 35 33 33 31 25 29 30 31 28 24 25 32 34 34 37 34
114 110 97 86 69 89 94 62 81 66 78 68 74 60 65 66 65 44 68 65 69 61 36 55 44 39 36 36 34 27 38 36 30 28 35 34 33 27 25 28 33 35 34 37 37
44 62 84 88 53 70 75 87 86 58 72 74 76 76 66 71 68 74 61 62 67 54 53 51 51 40 41 38 35 31 38 35 32 30 27 33 32 29 27 28 34 36 30 35 33
Wind_Direction
276 275 272 276 283 285 287 285 289 292 295 295 296 294 301 305 308 283 309 320 306 298 322 330 331 325 265 267 272 273 238 247 226 232 238 246 219 232 251 255 249 255 241 246 252
268 273 278 279 283 284 287 288 287 292 292 293 294 297 301 303 309 280 265 320 326 321 330 332 332 321 257 261 264 263 235 231 244 229 243 230 237 239 252 246 239 231 247 250 215
261 265 269 277 281 283 283 283 289 290 289 292 292 295 302 304 310 307 318 299 326 321 331 331 330 319 243 260 275 286 245 237 229 239 223 220 220 201 249 247 250 232 244 249 234
276 265 272 275 277 274 280 281 285 286 289 289 294 296 300 307 309 318 321 323 327 325 331 336 326 279 241 260 276 275 230 227 221 209 212 225 243 245 217 243 217 244 246 250 226
265 267 271 272 274 275 274 279 282 284 286 289 293 296 302 307 307 318 321 323 327 320 333 335 326 295 233 245 265 237 219 219 226 189 199 228 235 226 247 212 230 247 245 253 226
266 267 270 271 273 269 271 278 282 282 286 287 292 298 301 301 287 314 322 324 327 324 334 338 323 296 222 264 267 259 209 218 204 224 219 217 219 230 242 221 243 236 232 247 259
267 266 268 270 268 268 280 278 280 278 284 285 292 294 303 296 311 298 317 317 329 328 334 337 314 243 220 267 260 228 199 206 215 221 230 220 250 201 192 222 241 231 240 258 243
266 266 263 264 263 268 270 275 277 282 278 285 291 294 278 308 312 310 319 324 325 330 334 336 309 231 241 270 246 231 188 203 207 215 208 214 203 228 231 217 243 234 209 249 247
265 259 263 264 266 271 273 277 272 272 281 282 291 293 303 293 304 317 319 327 318 331 332 334 326 324 284 265 234 217 194 199 205 212 200 199 206 230 232 207 232 240 248 260 252
256 261 262 264 267 270 273 275 269 268 274 284 291 290 304 278 311 313 321 325 324 331 334 330 320 339 326 283 207 189 190 256 212 241 216 220 207 234 214 229 217 245 241 248 255
262 262 262 264 267 269 274 268 270 281 274 287 287 286 266 309 295 313 319 309 321 330 333 330 303 340 350 253 200 197 203 205 247 207 201 205 217 209 229 227 228 253 249 244 255
267 264 262 263 266 267 269 264 271 279 283 280 284 292 270 309 311 310 320 304 317 329 334 327 322 345 351 267 225 210 206 232 201 194 208 235 204 263 231 228 239 239 261 269 262
253 259 263 259 265 265 264 268 270 270 276 281 286 288 292 303 305 306 318 323 327 328 334 325 323 327 327 251 248 215 209 211 212 194 215 276 276 211 212 235 248 266 245 268 255
250 250 258 258 261 264 265 266 268 272 270 283 285 287 295 296 299 303 309 324 319 327 331 324 328 320 297 319 253 228 228 209 231 217 212 229 224 254 250 239 269 263 241 242 257
251 249 249 252 254 257 263 266 268 277 278 279 282 287 288 292 295 290 313 318 308 317 328 335 323 311 301 310 258 241 235 230 229 233 229 219 226 224 254 231 231 233 237 244 251
243 246 247 251 252 252 255 262 264 273 270 274 279 283 283 282 285 298 307 315 312 310 326 332 315 306 308 298 266 248 231 241 250 248 242 233 231 238 233 248 240 241 252 256 264
240 247 257 247 248 252 253 255 263 241 267 269 272 269 282 252 267 298 296 310 314 318 322 331 307 301 304 268 263 243 241 242 248 252 245 247 241 249 251 246 243 240 244 247 247
242 240 250 241 244 252 253 258 260 259 262 265 259 276 281 260 290 295 299 305 314 315 322 328 300 298 286 261 242 239 246 246 256 260 255 247 253 238 248 248 249 251 257 259 260
233 247 238 248 250 245 245 244 253 257 261 263 267 256 280 255 275 294 298 303 306 316 295 328 292 290 282 274 256 244 240 248 257 262 243 250 252 244 244 254 255 257 265 269 269
241 233 235 242 251 246 251 239 251 253 245 261 258 270 248 262 286 283 290 289 306 292 317 325 299 290 290 276 254 245 244 245 256 254 253 244 254 261 258 261 266 257 253 260 263
231 235 237 246 247 242 242 244 249 254 254 259 263 248 243 249 268 285 289 297 302 298 309 313 321 284 286 282 267 246 244 248 260 252 239 237 246 258 267 267 270 269 264 257 257
227 229 235 233 239 202 234 243 250 246 247 254 258 237 267 274 276 275 290 295 297 301 302 310 317 283 286 279 267 246 240 245 251 255 255 246 257 264 265 265 264 265 265 268 266
228 228 231 228 236 236 237 238 242 245 233 220 234 261 268 273 279 276 286 291 296 297 303 305 308 302 277 273 263 258 261 251 245 246 259 263 263 264 266 263 266 269 271 266 265
232 225 198 232 229 229 243 238 246 243 224 249 253 256 255 262 273 280 284 288 294 295 298 306 305 307 287 269 264 262 267 266 260 266 268 265 264 253 260 269 270 268 272 277 279
236 228 228 228 230 228 230 236 227 239 228 248 254 261 261 266 272 275 276 285 290 263 295 297 297 302 284 273 262 266 270 265 265 269 267 267 264 264 266 263 266 273 278 282 287
226 228 224 227 224 228 227 237 236 239 245 247 249 252 259 264 267 264 279 282 286 286 286 294 298 298 299 271 267 259 265 263 264 261 262 268 264 264 264 263 268 273 273 273 268
219 224 229 228 223 228 229 230 234 238 241 245 250 252 258 263 265 269 273 279 281 283 287 282 293 295 293 270 270 272 263 263 264 259 259 263 266 268 265 268 269 272 265 269 273